Torna al catalogo

FOURIER

AttivoScienzaSSO
NORAD 65298·PAYLOAD·🇷🇼 Rwanda

Lanciato Aug 23, 2025 da Rocket Lab Launch Complex 1

Loading…

Prossimi Passaggi (prossime 24 ore)

TLE

AggiornatoSource: Space-Track

Epoca: Sep 13, 2026, 20:07 UTC

1 65298U 25185B   26256.83886459  .00007005  00000-0  91319-3 0  9991
2 65298  97.9649 339.5118 0015654 153.7350 206.4659 14.80788183 56956

Traccia FOURIER in tempo reale con AllMySat

Download on the App Store